Regional Weather Roundup
Issued by NWS

Home | Current Version | Previous Version | Text Only | Print | Product List | Glossary Off
Versions: 1 2 3 4 5 6 7 8 9 10 11 12 13 14 15 16 17 18 19 20 21 22 23 24 25 26 27 28 29 30 31 32 33 34 35 36 37 38 39 40 41 42 43 44 45 46 47 48 49 50

000
ASUS43 KLMK 270002
RWRKY
KENTUCKY REGIONAL WEATHER ROUNDUP
NATIONAL WEATHER SERVICE LOUISVILLE KY
800 PM EDT TUE MAY 26 2015

NOTE "FAIR" INDICATES FEW OR NO CLOUDS BELOW 12,000 FEET
WITH NO SIGNIFICANT WEATHER AND/OR OBSTRUCTIONS TO VISIBILITY.

KYZ001>023-026-027-061>063-070>075-270100-
WESTERN AND SOUTH CENTRAL KENTUCKY

CITY           SKY/WX    TMP DP  RH WIND       PRES   REMARKS
PADUCAH        MOSUNNY   75  62  64 SW9       30.00R
HENDERSON      PTSUNNY   75  61  60 SW13      29.97S
OWENSBORO      PTSUNNY   76  66  71 W9G16     30.00R
HOPKINSVILLE   PTSUNNY   76  65  70 SW8       30.02R
BOWLING GREEN  MOCLDY    76  68  76 S10       30.03R
GLASGOW        NOT AVBL
$$

KYZ024-025-028>034-038-045-046-053-270100-
NORTH CENTRAL KENTUCKY

CITY           SKY/WX    TMP DP  RH WIND       PRES   REMARKS
LOUISVILLE/SDF CLOUDY    72  67  84 S12       30.00S
LOUISVILLE/LOU CLOUDY    71  67  87 S10       30.01R
FORT KNOX      MOCLDY    71  67  87 S10       30.01R
$$

KYZ035>037-039>044-047>052-055>060-089>105-270100-
NORTHEAST KENTUCKY

CITY           SKY/WX    TMP DP  RH WIND       PRES   REMARKS
LEXINGTON      LGT RAIN  68  65  90 S12       30.08R
COVINGTON      CLOUDY    71  69  93 S6        30.01S
FRANKFORT      CLOUDY    69  66  90 S9        30.04R
$$

KYZ054-064>069-076>088-106>120-270100-
SOUTHEAST KENTUCKY

CITY           SKY/WX    TMP DP  RH WIND       PRES   REMARKS
JACKSON        MOCLDY    79  63  57 MISG      30.09R
LONDON         LGT RAIN  79  58  48 S9        30.10R
SOMERSET       NOT AVBL
MIDDLESBORO    NOT AVBL
MONTICELLO     CLOUDY    70  69  96 S6        30.13F FOG
$$




USA.gov is the U.S. government's official web portal to all federal, state and local government web resources and services.